Wheeling, WV

3:30 AM EDT on September 19, 2019 (GMT -0400)
Wheeling-Ohio County

Weather History for KHLG - August, 2019

Change the Weather History Date:

Tuesday, August 20, 2019

  Actual Average Record
Temperature  
Mean Temperature 78 °F 71 °F  
Max Temperature 89 °F 81 °F 95 °F (1947)
Min Temperature 67 °F 61 °F 42 °F (1932)
Degree Days  
Heating Degree Days 0 0  
Month to date heating degree days 0 0  
Since 1 June heating degree days 29 41  
Since 1 July heating degree days 0 3  
Cooling Degree Days 13    
Month to date cooling degree days 171  
Year to date cooling degree days 734  
Since 1 June cooling degree days 628  
Growing Degree Days 27 (Base 50)    
Moisture  
Dew Point 68 °F    
Average Humidity 78    
Maximum Humidity 100    
Minimum Humidity 55    
Precipitation  
Precipitation 0.05 in 0.13 in 1.86 in (2004)
Month to date precipitation 1.36 2.11  
Year to date precipitation 24.86 26.13  
Sea Level Pressure  
Sea Level Pressure 30.05 in    
Wind  
Wind Speed 4 mph (SSE)    
Max Wind Speed 30 mph    
Max Gust Speed 42 mph    
Visibility 10 miles    
Events Rain , Thunderstorm    
T = Trace of Precipitation, MM = Missing Value Source: NWS Daily Summary

Daily Weather History Graph

Daily Weather History Graph

Search for Another Location

Airport or City:

Astronomy

Aug. 20, 2019 Rise Set
Actual Time 6:38 AM EDT 8:12 PM EDT
Civil Twilight 6:09 AM EDT 8:41 PM EDT
Nautical Twilight 5:35 AM EDT 9:15 PM EDT
Astronomical Twilight 4:58 AM EDT 9:52 PM EDT
Moon 11:00 PM EDT (8/20) 11:15 AM EDT (8/20)
Length of Visible Light 14h 31m
Length of Day
13h 34m
Waning Gibbous, 78% of the Moon is Illuminated
Aug 20
Waning Gibbous
Aug 23
Last Quarter
Aug 30
New
Sep 5
First Quarter
Sep 14
Full

Hourly Weather History & Observations

Time (EDT) Temp. Heat Index Dew Point Humidity Pressure Visibility Wind Dir Wind Speed Gust Speed Precip Events Conditions
12:53 AM 73.0 °F - 66.9 °F 81% 30.08 in 10.0 mi Calm Calm - N/A   Clear
1:53 AM 70.0 °F - 66.9 °F 90% 30.09 in 10.0 mi East 3.5 mph - N/A   Clear
2:53 AM 71.1 °F - 66.9 °F 87% 30.08 in 10.0 mi Calm Calm - N/A   Clear
3:53 AM 70.0 °F - 66.9 °F 90% 30.08 in 10.0 mi Calm Calm - N/A   Mostly Cloudy
4:53 AM 69.1 °F - 66.0 °F 90% 30.08 in 10.0 mi Calm Calm - N/A   Partly Cloudy
5:53 AM 69.1 °F - 66.0 °F 90% 30.08 in 10.0 mi Calm Calm - N/A   Clear
6:53 AM 66.9 °F - 66.0 °F 97% 30.09 in 10.0 mi Calm Calm - N/A   Clear
7:53 AM 70.0 °F - 68.0 °F 93% 30.10 in 10.0 mi Calm Calm - N/A   Partly Cloudy
8:53 AM 73.0 °F - 68.0 °F 84% 30.10 in 10.0 mi Calm Calm - N/A   Scattered Clouds
9:53 AM 73.0 °F - 69.1 °F 87% 30.12 in 10.0 mi SSE 4.6 mph - N/A   Overcast
10:53 AM 75.0 °F - 69.1 °F 82% 30.10 in 10.0 mi South 5.8 mph - N/A   Clear
11:53 AM 80.1 °F 83.2 °F 70.0 °F 71% 30.11 in 10.0 mi Calm Calm - N/A   Clear
12:53 PM 82.9 °F 87.0 °F 70.0 °F 65% 30.09 in 10.0 mi SE 4.6 mph - N/A   Clear
1:53 PM 86.0 °F 90.7 °F 70.0 °F 59% 30.06 in 10.0 mi South 8.1 mph - N/A   Clear
2:53 PM 88.0 °F 92.9 °F 70.0 °F 55% 30.04 in 10.0 mi South 6.9 mph - N/A   Clear
3:53 PM 87.1 °F 91.3 °F 69.1 °F 55% 30.02 in 10.0 mi South 6.9 mph - N/A   Clear
4:53 PM 88.0 °F 92.9 °F 70.0 °F 55% 30.01 in 10.0 mi SSE 6.9 mph - N/A   Clear
5:53 PM 87.1 °F 92.0 °F 70.0 °F 57% 29.99 in 10.0 mi SSE 4.6 mph - N/A   Clear
6:53 PM 84.0 °F 89.6 °F 72.0 °F 67% 29.99 in 10.0 mi SE 3.5 mph - N/A   Clear
7:53 PM 80.1 °F 83.6 °F 71.1 °F 74% 29.96 in 10.0 mi SE 3.5 mph - N/A   Clear
8:53 PM 78.1 °F - 72.0 °F 81% 29.96 in 10.0 mi SE 3.5 mph - N/A   Clear
9:48 PM 75.2 °F - 69.8 °F 83% 30.05 in 10.0 mi WNW 25.3 mph 36.8 mph N/A Thunderstorm Scattered Clouds
9:53 PM 75.0 °F - 66.9 °F 76% 30.03 in 10.0 mi WNW 16.1 mph 36.8 mph N/A Thunderstorm Mostly Cloudy
9:56 PM 75.0 °F - 66.9 °F 76% 30.05 in 10.0 mi WNW 13.8 mph 36.8 mph N/A Thunderstorm Mostly Cloudy
10:03 PM 71.1 °F - 64.9 °F 81% 30.04 in 5.0 mi West 19.6 mph 41.4 mph 0.03 in Rain , Thunderstorm Heavy Thunderstorms and Rain
10:38 PM 70.0 °F - 64.0 °F 81% 30.00 in 10.0 mi North 8.1 mph - 0.05 in   Scattered Clouds
10:53 PM 68.0 °F - 64.9 °F 90% 30.00 in 10.0 mi East 6.9 mph - 0.05 in   Partly Cloudy
11:01 PM 68.0 °F - 66.0 °F 93% 30.02 in 10.0 mi SE 3.5 mph - N/A Thunderstorm Partly Cloudy
11:08 PM 66.9 °F - 66.0 °F 97% 30.03 in 6.0 mi SSW 6.9 mph - 0.00 in Rain , Thunderstorm Light Thunderstorms and Rain
11:42 PM 68.0 °F - 66.0 °F 93% 30.01 in 10.0 mi SE 8.1 mph - 0.00 in Rain , Thunderstorm Light Rain
11:53 PM 69.1 °F - 66.9 °F 93% 29.99 in 10.0 mi SSE 9.2 mph - 0.00 in   Partly Cloudy